Weather History for KSAZ - February, 2013

Change the Weather History Date:

Friday, February 15, 2013

  Actual Average Record
Temperature  
Mean Temperature 2 °F -  
Max Temperature 12 °F 24 °F 41 °F (2002)
Min Temperature -9 °F 6 °F -23 °F (2001)
Degree Days  
Heating Degree Days 64    
Moisture  
Dew Point -4 °F    
Average Humidity 80    
Maximum Humidity 92    
Minimum Humidity 62    
Precipitation  
Precipitation 0.00 in - - ()
Sea Level Pressure  
Sea Level Pressure 30.23 in    
Wind  
Wind Speed 7 mph (WNW)    
Max Wind Speed 16 mph    
Max Gust Speed 17 mph    
Visibility 10 miles    
Events Snow    
Averages and records for this station are not official NWS values.
T = Trace of Precipitation, MM = Missing Value Source: NWS Daily Summary

Daily Weather History Graph

Daily Weather History Graph

Search for Another Location

Airport or City:

Trip Planner

Search our weather history database for the weather conditions in past years. The results will help you decide how hot, cold, wet, or windy it might be!

Date:

Astronomy

Feb. 15, 2013 Rise Set
Actual Time 7:22 AM CST 5:45 PM CST
Civil Twilight 6:51 AM CST 6:16 PM CST
Nautical Twilight 6:15 AM CST 6:51 PM CST
Astronomical Twilight 5:41 AM CST 7:26 PM CST
Moon 9:36 AM CST (2/15) No Moon Set
Length of Visible Light 11h 25m
Length of Day
10h 23m
Waxing Crescent, 30% of the Moon is Illuminated
Feb 15
Waxing Crescent
Feb 17
First Quarter
Feb 25
Full
Mar 4
Last Quarter
Mar 11
New

Hourly Weather History & Observations

Time (CST) Temp. Windchill Dew Point Humidity Pressure Visibility Wind Dir Wind Speed Gust Speed Precip Events Conditions
12:13 AM 1.4 °F -11.3 °F -2.2 °F 85% 30.17 in 10.0 mi West 6.9 mph - N/A   Mostly Cloudy
12:33 AM -0.4 °F -13.4 °F -2.2 °F 92% 30.17 in 10.0 mi West 6.9 mph - N/A   Clear
12:53 AM -0.4 °F -12.0 °F -2.2 °F 92% 30.17 in 10.0 mi WNW 5.8 mph - N/A   Clear
1:13 AM 1.4 °F -9.9 °F -2.2 °F 85% 30.17 in 10.0 mi WNW 5.8 mph - N/A   Mostly Cloudy
1:33 AM -0.4 °F -13.4 °F -2.2 °F 92% 30.17 in 10.0 mi WNW 6.9 mph - N/A   Scattered Clouds
1:53 AM -2.2 °F -14.2 °F -5.8 °F 85% 30.18 in 10.0 mi WNW 5.8 mph - N/A   Clear
2:13 AM -5.8 °F -18.4 °F -7.6 °F 92% 30.18 in 10.0 mi WNW 5.8 mph - N/A   Clear
2:34 AM -4.0 °F -14.6 °F -5.8 °F 92% 30.19 in 10.0 mi WNW 4.6 mph - N/A   Clear
2:53 AM -4.0 °F -14.6 °F -5.8 °F 92% 30.19 in 10.0 mi West 4.6 mph - N/A   Clear
3:13 AM -5.8 °F -18.4 °F -7.6 °F 92% 30.19 in 10.0 mi West 5.8 mph - N/A   Clear
3:34 AM -5.8 °F -16.7 °F -9.4 °F 84% 30.19 in 10.0 mi West 4.6 mph - N/A   Clear
3:53 AM -5.8 °F -16.7 °F -9.4 °F 84% 30.19 in 10.0 mi West 4.6 mph - N/A   Clear
4:13 AM -7.6 °F -18.8 °F -11.2 °F 84% 30.19 in 10.0 mi West 4.6 mph - N/A   Clear
4:34 AM -7.6 °F -20.6 °F -11.2 °F 84% 30.20 in 10.0 mi West 5.8 mph - N/A   Clear
4:53 AM -7.6 °F -20.6 °F -11.2 °F 84% 30.21 in 10.0 mi West 5.8 mph - N/A   Clear
5:13 AM -7.6 °F -20.6 °F -11.2 °F 84% 30.21 in 10.0 mi WNW 5.8 mph - N/A   Clear
5:34 AM -7.6 °F -20.6 °F -9.4 °F 92% 30.21 in 10.0 mi WNW 5.8 mph - N/A   Clear
5:53 AM -7.6 °F -18.8 °F -9.4 °F 92% 30.22 in 10.0 mi WNW 4.6 mph - N/A   Clear
6:13 AM -7.6 °F -16.5 °F -9.4 °F 92% 30.22 in 10.0 mi WNW 3.5 mph - N/A   Clear
6:34 AM -5.8 °F -18.4 °F -7.6 °F 92% 30.23 in 10.0 mi WNW 5.8 mph - N/A   Clear
6:53 AM -4.0 °F -14.6 °F -7.6 °F 85% 30.23 in 10.0 mi WNW 4.6 mph - N/A   Clear
7:13 AM -7.6 °F -16.5 °F -11.2 °F 84% 30.24 in 10.0 mi WNW 3.5 mph - N/A   Clear
7:33 AM -9.4 °F -20.9 °F -13.0 °F 84% 30.24 in 10.0 mi WNW 4.6 mph - N/A   Clear
7:53 AM -7.6 °F -20.6 °F -11.2 °F 84% 30.24 in 10.0 mi WNW 5.8 mph - N/A   Clear
8:13 AM -9.4 °F -18.6 °F -11.2 °F 92% 30.25 in 10.0 mi WNW 3.5 mph - N/A   Clear
8:33 AM -5.8 °F -14.5 °F -9.4 °F 84% 30.26 in 10.0 mi WNW 3.5 mph - N/A   Clear
8:53 AM -4.0 °F -14.6 °F -7.6 °F 85% 30.26 in 10.0 mi WNW 4.6 mph - N/A   Clear
9:13 AM -2.2 °F -10.4 °F -5.8 °F 85% 30.27 in 10.0 mi WNW 3.5 mph - N/A   Clear
9:33 AM -0.4 °F -13.4 °F -4.0 °F 85% 30.27 in 10.0 mi NW 6.9 mph - N/A   Clear
9:53 AM 1.4 °F -12.5 °F -0.4 °F 92% 30.27 in 10.0 mi NW 8.1 mph - N/A   Clear
10:13 AM 3.2 °F -10.3 °F 1.4 °F 92% 30.28 in 10.0 mi NW 8.1 mph - N/A   Clear
10:33 AM 5.0 °F -6.9 °F 3.2 °F 92% 30.27 in 10.0 mi NW 6.9 mph - N/A   Clear
11:13 AM 6.8 °F -3.5 °F 3.2 °F 85% 30.27 in 10.0 mi WNW 5.8 mph - N/A   Clear
11:53 AM 8.6 °F -3.7 °F 1.4 °F 73% 30.28 in 10.0 mi West 8.1 mph - N/A   Clear
12:13 PM 8.6 °F -3.7 °F 1.4 °F 73% 30.27 in 10.0 mi West 8.1 mph - N/A   Clear
12:33 PM 10.4 °F -1.5 °F 1.4 °F 67% 30.27 in 10.0 mi West 8.1 mph - N/A   Clear
12:53 PM 10.4 °F -2.4 °F 1.4 °F 67% 30.27 in 10.0 mi West 9.2 mph - N/A   Clear
1:13 PM 10.4 °F -2.4 °F 3.2 °F 73% 30.26 in 10.0 mi West 9.2 mph - N/A   Clear
1:33 PM 12.2 °F -1.8 °F 3.2 °F 67% 30.26 in 10.0 mi West 11.5 mph - N/A   Clear
1:53 PM 12.2 °F -1.8 °F 3.2 °F 67% 30.26 in 10.0 mi West 11.5 mph - N/A   Clear
2:13 PM 12.2 °F -3.7 °F 3.2 °F 67% 30.26 in 10.0 mi West 15.0 mph - N/A   Clear
2:33 PM 12.2 °F -1.8 °F 3.2 °F 67% 30.26 in 10.0 mi West 11.5 mph - N/A   Scattered Clouds
2:53 PM 12.2 °F -1.8 °F 3.2 °F 67% 30.25 in 10.0 mi West 11.5 mph - N/A   Clear
3:13 PM 12.2 °F -4.3 °F 3.2 °F 67% 30.25 in 10.0 mi West 16.1 mph - N/A   Clear
3:33 PM 12.2 °F -1.0 °F 3.2 °F 67% 30.25 in 10.0 mi West 10.4 mph - N/A   Clear
3:53 PM 12.2 °F -4.3 °F 1.4 °F 62% 30.25 in 10.0 mi West 16.1 mph - N/A   Clear
4:13 PM 12.2 °F -3.7 °F 1.4 °F 62% 30.25 in 10.0 mi West 15.0 mph - N/A   Clear
4:33 PM 10.4 °F -4.8 °F -0.4 °F 62% 30.24 in 10.0 mi West 12.7 mph 17.3 mph N/A   Clear
4:53 PM 10.4 °F -3.3 °F -0.4 °F 62% 30.24 in 10.0 mi West 10.4 mph - N/A   Clear
5:13 PM 8.6 °F -6.3 °F -0.4 °F 67% 30.24 in 10.0 mi West 11.5 mph - N/A   Clear
5:33 PM 8.6 °F -5.5 °F -2.2 °F 62% 30.24 in 10.0 mi West 10.4 mph - N/A   Clear
5:53 PM 6.8 °F -7.8 °F -2.2 °F 67% 30.24 in 10.0 mi West 10.4 mph - N/A   Clear
6:13 PM 3.2 °F -11.3 °F -2.2 °F 78% 30.24 in 10.0 mi West 9.2 mph - N/A   Clear
6:33 PM 3.2 °F -11.3 °F -4.0 °F 72% 30.24 in 10.0 mi West 9.2 mph - N/A   Clear
6:53 PM 1.4 °F -13.5 °F -4.0 °F 78% 30.24 in 10.0 mi West 9.2 mph - N/A   Clear
7:13 PM 1.4 °F -12.5 °F -4.0 °F 78% 30.24 in 10.0 mi West 8.1 mph - N/A   Clear
7:33 PM -0.4 °F -13.4 °F -5.8 °F 78% 30.23 in 10.0 mi West 6.9 mph - N/A   Scattered Clouds
7:53 PM -0.4 °F -15.7 °F -5.8 °F 78% 30.23 in 10.0 mi West 9.2 mph - N/A   Mostly Cloudy
8:13 PM 3.2 °F -11.3 °F -2.2 °F 78% 30.23 in 10.0 mi WNW 9.2 mph - N/A   Overcast
8:33 PM 1.4 °F -11.3 °F -4.0 °F 78% 30.23 in 10.0 mi WNW 6.9 mph - N/A   Overcast
8:53 PM -2.2 °F -12.5 °F -7.6 °F 78% 30.23 in 10.0 mi WNW 4.6 mph - N/A   Overcast
9:13 PM -2.2 °F -14.2 °F -7.6 °F 78% 30.23 in 10.0 mi West 5.8 mph - N/A   Overcast
9:33 PM -2.2 °F -12.5 °F -7.6 °F 78% 30.23 in 10.0 mi West 4.6 mph - N/A   Overcast
9:53 PM -2.2 °F -12.5 °F -7.6 °F 78% 30.23 in 10.0 mi WNW 4.6 mph - N/A   Overcast
10:13 PM -0.4 °F -12.0 °F -5.8 °F 78% 30.22 in 10.0 mi West 5.8 mph - N/A   Overcast
10:33 PM -0.4 °F -10.4 °F -4.0 °F 85% 30.21 in 7.0 mi West 4.6 mph - N/A Snow Light Snow
10:53 PM -0.4 °F -8.3 °F -2.2 °F 92% 30.21 in 5.0 mi West 3.5 mph - N/A Snow Light Snow
11:13 PM 1.4 °F -6.2 °F -2.2 °F 85% 30.20 in 4.0 mi West 3.5 mph - N/A Snow Light Snow
11:33 PM 1.4 °F - -0.4 °F 92% 30.20 in 4.0 mi Calm Calm - N/A Snow Light Snow
11:53 PM 1.4 °F -8.3 °F -0.4 °F 92% 30.20 in 4.0 mi West 4.6 mph - N/A Snow Light Snow